• In Hungary
  • List of Countries
  • For 7 days
  • Water Temperature
  • Satellite Maps
  • Weather Map
  • News
  • Weather Widgets
  • user-avatar
    Login

    Hourly Weather Strizkov

    Today, 22 September, Saturday

    Time Temperature Precipitation Wind Pressure Humidity
    00:00 +14°C° 0.2 mm 4 mps 736 mmHg 77%
    01:00 +13°C° 0.2 mm 4 mps 737 mmHg 74%
    02:00 +12°C° 0 mm 4 mps 737 mmHg 74%
    03:00 +12°C° 0 mm 3 mps 738 mmHg 74%
    04:00 +11°C° 0 mm 3 mps 738 mmHg 74%
    05:00 +11°C° 0 mm 3 mps 739 mmHg 74%
    06:00 +11°C° 0 mm 4 mps 739 mmHg 74%
    07:00 +10°C° 0 mm 4 mps 739 mmHg 74%
    08:00 +12°C° 0 mm 4 mps 739 mmHg 67%
    09:00 +13°C° 0 mm 5 mps 740 mmHg 60%
    10:00 +15°C° 0 mm 5 mps 740 mmHg 54%
    11:00 +15°C° 0 mm 5 mps 739 mmHg 50%
    12:00 +16°C° 0 mm 5 mps 739 mmHg 47%
    13:00 +17°C° 0 mm 5 mps 739 mmHg 44%
    14:00 +17°C° 0 mm 5 mps 739 mmHg 44%
    15:00 +18°C° 0 mm 4 mps 739 mmHg 45%
    16:00 +18°C° 0 mm 4 mps 738 mmHg 45%
    17:00 +17°C° 0 mm 4 mps 738 mmHg 48%
    18:00 +16°C° 0 mm 3 mps 738 mmHg 51%
    19:00 +14°C° 0 mm 3 mps 738 mmHg 54%
    20:00 +14°C° 0 mm 3 mps 739 mmHg 56%
    21:00 +13°C° 0 mm 3 mps 739 mmHg 58%
    22:00 +13°C° 0 mm 3 mps 739 mmHg 60%
    23:00 +13°C° 0.1 mm 3 mps 739 mmHg 63%

    Tomorrow, 23 September, Sunday

    Time Temperature Precipitation Wind Pressure Humidity
    00:00 +12°C° 0.1 mm 3 mps 739 mmHg 66%
    01:00 +12°C° 0.1 mm 3 mps 739 mmHg 69%
    02:00 +11°C° 0.1 mm 3 mps 738 mmHg 72%
    03:00 +11°C° 0.1 mm 3 mps 738 mmHg 74%
    04:00 +11°C° 0.1 mm 3 mps 738 mmHg 76%
    05:00 +11°C° 0.3 mm 3 mps 738 mmHg 79%
    06:00 +11°C° 0.3 mm 3 mps 738 mmHg 81%
    07:00 +11°C° 0.3 mm 3 mps 737 mmHg 83%
    08:00 +12°C° 0.1 mm 2 mps 737 mmHg 82%
    09:00 +12°C° 0.1 mm 2 mps 737 mmHg 81%
    10:00 +13°C° 0.1 mm 2 mps 737 mmHg 80%
    11:00 +13°C° 0.1 mm 2 mps 736 mmHg 81%
    12:00 +13°C° 0.1 mm 3 mps 736 mmHg 82%
    13:00 +13°C° 0.1 mm 3 mps 735 mmHg 83%
    14:00 +13°C° 0.3 mm 3 mps 734 mmHg 85%
    15:00 +13°C° 0.3 mm 3 mps 733 mmHg 87%
    16:00 +14°C° 0.3 mm 3 mps 732 mmHg 88%
    17:00 +14°C° 0.3 mm 3 mps 731 mmHg 89%
    18:00 +15°C° 0.3 mm 4 mps 729 mmHg 90%
    19:00 +15°C° 0.3 mm 4 mps 728 mmHg 91%
    20:00 +16°C° 1 mm 6 mps 727 mmHg 88%
    21:00 +17°C° 1 mm 7 mps 726 mmHg 85%
    22:00 +18°C° 1 mm 9 mps 726 mmHg 82%
    23:00 +16°C° 2.4 mm 9 mps 727 mmHg 82%

    Day after tomorrow, 24 September, Monday

    Time Temperature Precipitation Wind Pressure Humidity
    00:00 +13°C° 2.4 mm 10 mps 728 mmHg 83%
    01:00 +11°C° 2.4 mm 10 mps 729 mmHg 83%
    02:00 +10°C° 0.1 mm 9 mps 731 mmHg 82%
    03:00 +9°C° 0.1 mm 8 mps 734 mmHg 82%
    04:00 +8°C° 0.1 mm 7 mps 736 mmHg 81%
    05:00 +8°C° 0.1 mm 7 mps 737 mmHg 80%
    06:00 +8°C° 0.1 mm 7 mps 738 mmHg 79%
    07:00 +8°C° 0.1 mm 7 mps 740 mmHg 78%
    08:00 +8°C° 0 mm 7 mps 740 mmHg 71%
    09:00 +9°C° 0 mm 8 mps 741 mmHg 64%
    10:00 +10°C° 0 mm 8 mps 742 mmHg 57%
    11:00 +11°C° 0 mm 9 mps 742 mmHg 53%
    12:00 +11°C° 0 mm 9 mps 743 mmHg 49%
    13:00 +12°C° 0 mm 9 mps 743 mmHg 45%
    14:00 +12°C° 0 mm 8 mps 743 mmHg 47%
    15:00 +12°C° 0 mm 8 mps 743 mmHg 49%
    16:00 +11°C° 0 mm 7 mps 743 mmHg 50%
    17:00 +10°C° 0 mm 6 mps 744 mmHg 56%
    18:00 +9°C° 0 mm 5 mps 744 mmHg 61%
    19:00 +8°C° 0 mm 4 mps 745 mmHg 67%
    20:00 +7°C° 0 mm 4 mps 745 mmHg 69%
    21:00 +7°C° 0 mm 4 mps 746 mmHg 70%
    22:00 +6°C° 0 mm 4 mps 747 mmHg 72%
    23:00 +6°C° 0 mm 4 mps 747 mmHg 73%

    25 September, Tuesday

    Time Temperature Precipitation Wind Pressure Humidity
    00:00 +5°C° 0 mm 4 mps 747 mmHg 74%
    01:00 +5°C° 0 mm 4 mps 747 mmHg 75%
    02:00 +5°C° 0 mm 3 mps 748 mmHg 77%
    03:00 +4°C° 0 mm 3 mps 748 mmHg 79%
    04:00 +4°C° 0 mm 3 mps 748 mmHg 81%
    05:00 +4°C° 0 mm 3 mps 749 mmHg 80%
    06:00 +4°C° 0 mm 3 mps 749 mmHg 80%
    07:00 +4°C° 0 mm 3 mps 749 mmHg 79%
    08:00 +7°C° 0 mm 3 mps 749 mmHg 70%
    09:00 +9°C° 0 mm 3 mps 750 mmHg 62%
    10:00 +10°C° 0 mm 4 mps 750 mmHg 53%
    11:00 +11°C° 0 mm 3 mps 750 mmHg 49%
    12:00 +12°C° 0 mm 3 mps 749 mmHg 45%
    13:00 +13°C° 0 mm 3 mps 749 mmHg 41%
    14:00 +13°C° 0 mm 3 mps 748 mmHg 41%
    15:00 +13°C° 0 mm 3 mps 748 mmHg 41%
    16:00 +13°C° 0 mm 3 mps 747 mmHg 41%
    17:00 +11°C° 0 mm 3 mps 747 mmHg 47%
    18:00 +10°C° 0 mm 2 mps 747 mmHg 52%
    19:00 +8°C° 0 mm 2 mps 747 mmHg 58%
    20:00 +8°C° 0 mm 2 mps 747 mmHg 60%
    21:00 +8°C° 0 mm 2 mps 747 mmHg 63%
    22:00 +7°C° 0 mm 2 mps 747 mmHg 66%
    23:00 +7°C° 0 mm 3 mps 747 mmHg 68%

    26 September, Wednesday

    Time Temperature Precipitation Wind Pressure Humidity
    00:00 +7°C° 0 mm 3 mps 747 mmHg 70%
    01:00 +7°C° 0 mm 3 mps 747 mmHg 73%
    02:00 +5°C° 0 mm 3 mps 747 mmHg 75%
    03:00 +5°C° 0 mm 3 mps 747 mmHg 78%
    04:00 +5°C° 0 mm 3 mps 747 mmHg 81%
    05:00 +7°C° 0 mm 3 mps 747 mmHg 81%
    06:00 +7°C° 0 mm 3 mps 747 mmHg 82%
    07:00 +7°C° 0 mm 3 mps 748 mmHg 83%
    08:00 +9°C° 0 mm 3 mps 748 mmHg 77%
    09:00 +11°C° 0 mm 3 mps 748 mmHg 72%
    10:00 +12°C° 0 mm 3 mps 748 mmHg 67%
    11:00 +13°C° 0 mm 3 mps 748 mmHg 64%
    12:00 +15°C° 0 mm 2 mps 748 mmHg 61%
    13:00 +15°C° 0 mm 2 mps 748 mmHg 59%
    14:00 +16°C° 0 mm 2 mps 747 mmHg 58%
    15:00 +16°C° 0 mm 2 mps 747 mmHg 57%
    16:00 +16°C° 0 mm 1 mps 747 mmHg 56%
    17:00 +14°C° 0 mm 1 mps 747 mmHg 62%
    18:00 +13°C° 0 mm 1 mps 747 mmHg 68%
    19:00 +11°C° 0 mm 1 mps 747 mmHg 73%
    20:00 +11°C° 0 mm 1 mps 747 mmHg 75%
    21:00 +11°C° 0 mm 1 mps 747 mmHg 77%
    22:00 +10°C° 0 mm 1 mps 746 mmHg 79%
    23:00 +10°C° 0 mm 1 mps 746 mmHg 81%

    27 September, Thursday

    Time Temperature Precipitation Wind Pressure Humidity
    00:00 +8°C° 0 mm 2 mps 746 mmHg 82%
    01:00 +8°C° 0 mm 2 mps 746 mmHg 84%
    02:00 +8°C° 0 mm 2 mps 745 mmHg 85%
    03:00 +8°C° 0 mm 2 mps 745 mmHg 86%
    04:00 +7°C° 0 mm 2 mps 744 mmHg 87%
    05:00 +8°C° 0 mm 2 mps 744 mmHg 86%
    06:00 +8°C° 0 mm 2 mps 744 mmHg 85%
    07:00 +9°C° 0 mm 1 mps 743 mmHg 84%
    08:00 +10°C° 0 mm 2 mps 743 mmHg 74%
    09:00 +14°C° 0 mm 2 mps 743 mmHg 65%
    10:00 +16°C° 0 mm 2 mps 743 mmHg 55%
    11:00 +18°C° 0 mm 3 mps 742 mmHg 50%
    12:00 +19°C° 0 mm 3 mps 741 mmHg 45%
    13:00 +21°C° 0 mm 3 mps 741 mmHg 40%
    14:00 +21°C° 0 mm 3 mps 740 mmHg 41%
    15:00 +21°C° 0 mm 3 mps 740 mmHg 42%
    16:00 +21°C° 0 mm 3 mps 739 mmHg 43%
    17:00 +19°C° 0 mm 3 mps 739 mmHg 48%
    18:00 +17°C° 0 mm 3 mps 739 mmHg 54%
    19:00 +14°C° 0 mm 3 mps 739 mmHg 60%
    20:00 +13°C° 0 mm 3 mps 739 mmHg 61%
    21:00 +12°C° 0 mm 4 mps 739 mmHg 63%
    22:00 +12°C° 0 mm 4 mps 739 mmHg 64%
    23:00 +12°C° 0 mm 3 mps 740 mmHg 66%
    Show more